Volver al catálogo

ANGOSAT 2

ActivoComunicacionesGEO
NORAD 54033·PAYLOAD·🇦🇴 Angola

Lanzado Oct 12, 2022 desde Baikonur Cosmodrome

Loading…

TLE

ActualizadoSource: Space-Track

Época: Sep 14, 2026, 19:02 UTC

1 54033U 22131A   26257.79356102  .00000000  00000-0  00000-0 0  9999
2 54033   0.0205 165.7008 0000694 100.1877  36.5636  1.00272199 14379

Sigue ANGOSAT 2 en tiempo real con AllMySat

Download on the App Store